"Pseudo-MPEC" for P1163fO

Created 2020 Sep 19 21:07:26 UT using Find_Orb

Click here for an explanation of pseudo-MPECs

 
 Astrometry: 
     P1163fO  C2020 09 14s_AstrometryDckj!*OTFAV+x]redacted;/_%0R+66v8jx9c$R.F51
     P1163fO  C2020 09 14Bwxw''Q(Ha3!DC:#click-m.c]E9uikhRJ@:l=lCyNN'P5nQ4kl7F51
     P1163fO  C2020 09 14x9avEULhF:tp55R[_Q/32`#'77r]NqPhereN2MMAy;hmj8for(%UF51
     P1163fO  C2020 09 14[:nfJ\S0explanation_Z!PR9X#i-jp41o*S=tFES!ZmI!q_T'xhF51

Station data:
(F51) Pan-STARRS 1, Haleakala  (N20.707235 W156.255910)  US/Hawaii.
   Observers N. Primak, A. Schultz, S. Watters, J. Thiel, T. Goggia. Measurer
   PS1 Science Consortium. 1.8-m Ritchey-Chrétien + CCD.

Orbital elements:  P1163fO
   Perihelion 2020 May 4.955032 +/- 57.9 TT = 22:55:14 (JD 2458974.455032)
Epoch 2020 Sep 15.0 TT = JDT 2459107.5   Earth MOID: 0.0317   AutoNEOCP
M 141.31652188 +/- 120              (J2000 ecliptic)
n   1.06217111 +/- 0.773            Peri.   34.76560 +/- 90
a   0.95134869 +/- 0.462            Node   172.52970 +/- 35
e   0.1164031 +/- 0.257             Incl.   32.78115 +/- 49
P   0.93/338.92d           H 23.3   G  0.15   U 12.6  SR
q 0.84060875 +/- 0.366    Q 1.06208863 +/- 10.5
From 4 observations 2020 Sept. 14 (49.0 min); mean residual 0".12
Residuals in arcseconds: 
200914 F51  .11+  .15-    200914 F51  .08-  .00     
200914 F51  .13-  .23+    200914 F51  .10+  .07-    

Ephemerides (geocentric):
Date (UTC) HH   RA              Dec         delta   r     elong  mag " sig PA
---- -- -- --  -------------   -----------  ------ ------ -----  --- ---- ---
2020 09 19 21  03 46 41.573   -37 15 48.50  .09394 1.0471 114.7 20.4  56d  10
2020 09 19 22  03 46 42.115   -37 27 10.79  .09418 1.0471 114.7 20.4  57d  10
2020 09 19 23  03 46 42.649   -37 38 29.62  .09442 1.0472 114.6 20.4  57d  10
2020 09 20 00  03 46 43.172   -37 49 44.99  .09466 1.0472 114.6 20.4  57d   9
2020 09 20 01  03 46 43.685   -38 00 56.93  .09489 1.0473 114.5 20.5  57d   9
2020 09 20 02  03 46 44.189   -38 12 05.44  .09513 1.0473 114.5 20.5  56d   9
2020 09 20 03  03 46 44.684   -38 23 10.53  .09537 1.0473 114.4 20.5  56d   9
2020 09 20 04  03 46 45.168   -38 34 12.23  .09562 1.0474 114.4 20.5  57d   9
2020 09 20 05  03 46 45.643   -38 45 10.53  .09586 1.0474 114.3 20.5  57d   8
2020 09 20 06  03 46 46.108   -38 56 05.45  .09610 1.0475 114.3 20.5  57d   8
2020 09 20 07  03 46 46.563   -39 06 57.00  .09635 1.0475 114.2 20.5  57d   8
2020 09 20 08  03 46 47.008   -39 17 45.21  .09659 1.0475 114.2 20.5  57d   8
2020 09 20 09  03 46 47.444   -39 28 30.07  .09684 1.0476 114.2 20.5  57d   7
2020 09 20 10  03 46 47.870   -39 39 11.60  .09709 1.0476 114.1 20.5  57d   7
2020 09 20 11  03 46 48.286   -39 49 49.81  .09734 1.0476 114.1 20.5  56d   7
2020 09 20 12  03 46 48.692   -40 00 24.73  .09759 1.0477 114.0 20.5  57d   8
2020 09 20 13  03 46 49.089   -40 10 56.35  .09784 1.0477 114.0 20.5  58d   7
2020 09 20 14  03 46 49.476   -40 21 24.70  .09809 1.0478 113.9 20.5  58d   7
2020 09 20 15  03 46 49.853   -40 31 49.79  .09834 1.0478 113.9 20.5  58d   7
2020 09 20 16  03 46 50.221   -40 42 11.63  .09859 1.0478 113.8 20.6  58d   7
2020 09 20 17  03 46 50.578   -40 52 30.23  .09885 1.0479 113.8 20.6  58d   7
2020 09 20 18  03 46 50.926   -41 02 45.61  .09910 1.0479 113.7 20.6  58d   7
2020 09 20 19  03 46 51.264   -41 12 57.78  .09936 1.0479 113.7 20.6  58d   7
2020 09 20 20  03 46 51.593   -41 23 06.76  .09961 1.0480 113.6 20.6  58d   6
2020 09 20 21  03 46 51.912   -41 33 12.55  .09987 1.0480 113.6 20.6  58d   6
2020 09 20 22  03 46 52.220   -41 43 15.19  .10013 1.0481 113.5 20.6  59d   6
2020 09 20 23  03 46 52.519   -41 53 14.66  .10039 1.0481 113.5 20.6  59d   6
2020 09 21 00  03 46 52.809   -42 03 11.01  .10065 1.0481 113.4 20.6  59d   6
2020 09 21 01  03 46 53.088   -42 13 04.22  .10091 1.0482 113.4 20.6  59d   6
2020 09 21 02  03 46 53.358   -42 22 54.33  .10117 1.0482 113.3 20.6  59d   6
2020 09 21 03  03 46 53.618   -42 32 41.35  .10143 1.0483 113.3 20.6  58d   5
2020 09 21 04  03 46 53.869   -42 42 25.28  .10169 1.0483 113.2 20.6  58d   5
2020 09 21 05  03 46 54.109   -42 52 06.15  .10196 1.0483 113.2 20.6  58d   5
2020 09 21 06  03 46 54.340   -43 01 43.96  .10222 1.0484 113.1 20.6  58d   5
2020 09 21 07  03 46 54.561   -43 11 18.74  .10249 1.0484 113.1 20.7  58d   4
2020 09 21 08  03 46 54.772   -43 20 50.50  .10275 1.0484 113.0 20.7  58d   4
2020 09 21 09  03 46 54.973   -43 30 19.25  .10302 1.0485 113.0 20.7  58d   4
2020 09 21 10  03 46 55.165   -43 39 45.00  .10329 1.0485 112.9 20.7  57d   4
2020 09 21 11  03 46 55.347   -43 49 07.78  .10356 1.0485 112.9 20.7  57d   3
2020 09 21 12  03 46 55.519   -43 58 27.59  .10383 1.0486 112.9 20.7  57d   3
2020 09 21 13  03 46 55.681   -44 07 44.45  .10410 1.0486 112.8 20.7  57d   3
2020 09 21 14  03 46 55.834   -44 16 58.38  .10437 1.0487 112.8 20.7  57d   3
2020 09 21 15  03 46 55.976   -44 26 09.39  .10464 1.0487 112.7 20.7  57d   4
2020 09 21 16  03 46 56.109   -44 35 17.50  .10491 1.0487 112.7 20.7  57d   3
2020 09 21 17  03 46 56.233   -44 44 22.71  .10518 1.0488 112.6 20.7  57d   3
2020 09 21 18  03 46 56.346   -44 53 25.05  .10546 1.0488 112.6 20.7  57d   3
2020 09 21 19  03 46 56.450   -45 02 24.53  .10573 1.0488 112.5 20.7  57d   3
2020 09 21 20  03 46 56.543   -45 11 21.16  .10601 1.0489 112.5 20.7  57d   3